| time (UTC) | temp C | wind direction | speed KPH | gust KPH | rain 1hr cm | rain 24hr cm | rain mn cm | humidity % | barometer mb |
| 20260505065032 | 8 | 45 | 0.0 | 0.0 | 0.00 | 0.03 | 0.00 | 30 | 1019.2 |
| 20260505064031 | 8 | 45 | 1.6 | 3.2 | 0.00 | 0.03 | 0.00 | 31 | 1019.3 |
| 20260505063130 | 8 | 45 | 0.0 | 3.2 | 0.00 | 0.03 | 0.00 | 31 | 1019.4 |
| 20260505061131 | 7 | 45 | 0.0 | 1.6 | 0.00 | 0.03 | 0.00 | 35 | 1019.2 |
| 20260505060133 | 6 | 45 | 0.0 | 0.0 | 0.00 | 0.03 | 0.00 | 38 | 1019.0 |
| 20260505055118 | 6 | 45 | 0.0 | 0.0 | 0.00 | 0.03 | 0.03 | 43 | 1019.2 |
| 20260505054117 | 6 | 45 | 0.0 | 1.6 | 0.00 | 0.03 | 0.03 | 44 | 1018.9 |
| 20260505050216 | 6 | 45 | 0.0 | 0.0 | 0.00 | 0.03 | 0.03 | 42 | 1019.0 |
| 20260505041216 | 7 | 45 | 0.0 | 0.0 | 0.00 | 0.03 | 0.03 | 37 | 1018.8 |
| 20260505040215 | 7 | 45 | 0.0 | 0.0 | 0.00 | 0.03 | 0.03 | 37 | 1018.9 |
| 20260505035215 | 7 | 45 | 0.0 | 0.0 | 0.00 | 0.03 | 0.03 | 38 | 1018.9 |
| 20260505034219 | 7 | 45 | 0.0 | 0.0 | 0.00 | 0.03 | 0.03 | 37 | 1018.7 |
| 20260505033216 | 7 | 45 | 0.0 | 0.0 | 0.00 | 0.03 | 0.03 | 36 | 1018.8 |
| 20260505032216 | 7 | 45 | 0.0 | 0.0 | 0.00 | 0.03 | 0.03 | 35 | 1018.9 |
| 20260505031217 | 8 | 45 | 0.0 | 0.0 | 0.00 | 0.03 | 0.03 | 34 | 1018.3 |
| 20260505030217 | 8 | 45 | 0.0 | 0.0 | 0.00 | 0.03 | 0.03 | 33 | 1018.4 |
| 20260505025217 | 9 | 45 | 0.0 | 0.0 | 0.00 | 0.03 | 0.03 | 33 | 1018.5 |
| 20260505024216 | 9 | 45 | 0.0 | 0.0 | 0.00 | 0.03 | 0.03 | 33 | 1018.6 |
| 20260505022231 | 10 | 45 | 0.0 | 1.6 | 0.00 | 0.03 | 0.03 | 30 | 1018.7 |
| 20260505021315 | 10 | 45 | 0.0 | 0.0 | 0.00 | 0.03 | 0.03 | 31 | 1018.7 |
| 20260505020315 | 11 | 45 | 0.0 | 0.0 | 0.00 | 0.03 | 0.03 | 29 | 1018.5 |
| 20260505015414 | 11 | 45 | 0.0 | 0.0 | 0.00 | 0.03 | 0.03 | 30 | 1018.5 |
| 20260505014416 | 11 | 45 | 0.0 | 0.0 | 0.00 | 0.03 | 0.03 | 28 | 1018.3 |
| 20260505012515 | 12 | 45 | 0.0 | 0.0 | 0.00 | 0.03 | 0.03 | 29 | 1018.7 |
| 20260505011517 | 12 | 45 | 0.0 | 0.0 | 0.00 | 0.03 | 0.03 | 27 | 1018.7 |
| 20260505005515 | 13 | 45 | 0.0 | 1.6 | 0.00 | 0.03 | 0.03 | 26 | 1018.9 |
| 20260505004516 | 13 | 45 | 0.0 | 3.2 | 0.00 | 0.03 | 0.03 | 27 | 1018.9 |
| 20260505003518 | 13 | 45 | 0.0 | 1.6 | 0.00 | 0.03 | 0.03 | 27 | 1018.9 |
| 20260505002515 | 13 | 45 | 0.0 | 0.0 | 0.00 | 0.03 | 0.03 | 27 | 1018.9 |
| 20260505000515 | 13 | 45 | 0.0 | 0.0 | 0.00 | 0.03 | 0.03 | 26 | 1018.9 |
| 20260504235615 | 13 | 45 | 0.0 | 0.0 | 0.00 | 0.03 | 0.03 | 26 | 1019.3 |
| 20260504233617 | 14 | 45 | 1.6 | 3.2 | 0.00 | 0.03 | 0.03 | 24 | 1019.6 |
| 20260504231616 | 15 | 45 | 0.0 | 0.0 | 0.00 | 0.03 | 0.03 | 23 | 1019.8 |
| 20260504230715 | 14 | 45 | 0.0 | 1.6 | 0.00 | 0.03 | 0.03 | 23 | 1019.8 |
| 20260504225717 | 14 | 45 | 1.6 | 6.4 | 0.00 | 0.03 | 0.03 | 25 | 1020.0 |
| 20260504223816 | 15 | 45 | 1.6 | 3.2 | 0.00 | 0.03 | 0.03 | 28 | 1020.0 |
| 20260504222815 | 15 | 45 | 1.6 | 4.8 | 0.00 | 0.03 | 0.03 | 26 | 1019.9 |
| 20260504220915 | 15 | 45 | 0.0 | 3.2 | 0.00 | 0.03 | 0.03 | 27 | 1019.9 |
| 20260504214915 | 15 | 45 | 1.6 | 6.4 | 0.00 | 0.03 | 0.03 | 27 | 1019.9 |
| 20260504213918 | 15 | 45 | 1.6 | 3.2 | 0.00 | 0.03 | 0.03 | 27 | 1020.0 |
| 20260504211916 | 15 | 45 | 3.2 | 4.8 | 0.00 | 0.03 | 0.03 | 29 | 1020.5 |
| 20260504211014 | 15 | 45 | 0.0 | 3.2 | 0.00 | 0.03 | 0.03 | 32 | 1020.6 |
| 20260504210017 | 15 | 45 | 1.6 | 3.2 | 0.00 | 0.03 | 0.03 | 32 | 1020.5 |
| 20260504204115 | 14 | 45 | 1.6 | 4.8 | 0.00 | 0.03 | 0.03 | 34 | 1020.8 |
| 20260504203115 | 15 | 45 | 1.6 | 3.2 | 0.00 | 0.03 | 0.03 | 36 | 1021.1 |
| 20260504202214 | 14 | 45 | 0.0 | 3.2 | 0.00 | 0.03 | 0.03 | 36 | 1021.0 |
| 20260504201216 | 13 | 45 | 1.6 | 4.8 | 0.00 | 0.03 | 0.03 | 37 | 1021.1 |
| 20260504200217 | 13 | 45 | 1.6 | 8.0 | 0.00 | 0.03 | 0.03 | 38 | 1021.3 |
| 20260504195216 | 13 | 45 | 1.6 | 4.8 | 0.00 | 0.03 | 0.03 | 38 | 1021.3 |
| 20260504192216 | 13 | 45 | 0.0 | 4.8 | 0.00 | 0.03 | 0.03 | 38 | 1021.4 |
| 20260504191314 | 13 | 45 | 1.6 | 6.4 | 0.00 | 0.03 | 0.03 | 39 | 1021.6 |
| 20260504190318 | 13 | 45 | 1.6 | 4.8 | 0.00 | 0.03 | 0.03 | 39 | 1021.5 |
| 20260504185415 | 13 | 45 | 3.2 | 4.8 | 0.00 | 0.03 | 0.03 | 40 | 1021.7 |
| 20260504184416 | 14 | 45 | 1.6 | 1.6 | 0.00 | 0.03 | 0.03 | 41 | 1021.7 |
| 20260504181416 | 13 | 45 | 0.0 | 1.6 | 0.00 | 0.03 | 0.03 | 43 | 1022.0 |
| 20260504180415 | 13 | 45 | 0.0 | 0.0 | 0.00 | 0.03 | 0.03 | 42 | 1022.1 |
| 20260504174516 | 12 | 45 | 1.6 | 3.2 | 0.00 | 0.03 | 0.03 | 41 | 1022.2 |
| 20260504173615 | 12 | 45 | 0.0 | 1.6 | 0.00 | 0.03 | 0.03 | 43 | 1022.3 |
| 20260504172615 | 12 | 67 | 0.0 | 1.6 | 0.00 | 0.03 | 0.03 | 46 | 1022.2 |
| 20260504171715 | 12 | 67 | 0.0 | 1.6 | 0.00 | 0.03 | 0.03 | 47 | 1022.3 |
| 20260504170715 | 12 | 67 | 0.0 | 3.2 | 0.00 | 0.03 | 0.03 | 49 | 1022.3 |
| 20260504151118 | 8 | 67 | 0.0 | 0.0 | 0.00 | 0.03 | 0.03 | 74 | 1022.2 |
| 20260504141215 | 6 | 67 | 0.0 | 0.0 | 0.00 | 0.03 | 0.03 | 80 | 1022.2 |
| 20260504140232 | 6 | 67 | 0.0 | 0.0 | 0.00 | 0.03 | 0.03 | 80 | 1022.2 |
| 20260504130316 | 3 | 67 | 0.0 | 0.0 | 0.00 | 0.03 | 0.03 | 80 | 1021.4 |
| 20260504110516 | 3 | 67 | 0.0 | 0.0 | 0.00 | 0.03 | 0.03 | 81 | 1021.1 |
| 20260504100516 | 5 | 67 | 0.0 | 0.0 | 0.03 | 0.03 | 0.03 | 76 | 1021.5 |
| 20260504081017 | 8 | 67 | 3.2 | 6.4 | 0.00 | 0.00 | 0.00 | 60 | 1022.3 |
| 20260504070115 | 6 | 67 | 0.0 | 0.0 | 0.00 | 0.00 | 0.00 | 70 | 1021.7 |